User: anonymous   Login
Location: Slanting_Bridge
(35.6330°N, 80.9830°W)
Time: 21:23:47
(UTC-04:00)
Language:

Hamsat - Orbit

View from above orbital plane
View from above orbital plane
View from above satellite
View from above satellite

Ground track
Ground track

The orbit data is extracted from the following two-line orbital elements,

1 28650U 05017B   17149.53621832 +.00000352 +00000-0 +43284-4 0  9991
2 28650 097.6496 124.5077 0023187 188.6735 171.4085 14.88658849653325
Epoch (UTC): 29 May 2017 12:52:09
Eccentricity: 0.0023187
inclination: 97.6496°
perigee height: 586 km
apogee height: 618 km
right ascension of ascending node: 124.5077°
argument of perigee: 188.6735°
revolutions per day: 14.88658849
mean anomaly at epoch: 171.4085°
orbit number at epoch: 65332

The dashed part of the orbit path shows where the satellite is in the earth's shadow,  

DLR